Wind_Speed
19 19 20 22 24 27 31 34 37 36 36 35 34 35 36 35 33 31 29 30 32 34 35 36 37 38 39 39 39 39 39 38 38 37 37 36 36 36 37 37 37 37 37 37
19 20 21 22 22 24 26 29 31 32 31 32 34 33 33 34 34 32 30 29 30 32 33 34 35 37 38 38 38 38 38 38 37 36 36 36 37 37 38 39 40 40 40 40
19 20 20 19 21 22 23 23 25 26 25 26 28 29 29 29 29 28 27 27 28 30 32 33 34 34 36 37 37 37 38 37 37 37 36 37 37 38 39 40 41 41 42 43
18 19 19 22 20 20 20 20 19 19 19 19 21 22 23 23 24 24 24 25 27 28 29 30 32 32 33 35 35 35 36 36 35 35 35 36 37 38 39 40 41 41 42 43
17 17 19 21 20 18 17 17 16 16 16 16 17 18 20 21 21 22 22 23 24 24 25 26 28 29 30 31 31 32 32 32 32 32 33 34 34 35 36 37 38 39 39 40
17 17 18 19 18 18 17 16 16 16 16 16 17 18 19 19 20 21 22 21 21 21 22 22 23 25 26 26 26 27 27 27 28 28 29 29 30 32 33 34 35 36 36 37
17 17 17 18 18 17 17 17 17 17 16 17 17 17 18 18 18 19 20 19 19 19 19 19 19 19 20 21 22 22 22 22 22 24 25 27 28 30 31 32 32 32 33 33
19 18 19 17 17 16 16 16 16 16 16 16 15 15 15 16 16 17 16 16 16 16 17 17 17 17 18 18 18 18 18 19 21 23 24 26 27 28 29 29 29 29 29 29
21 21 20 18 18 17 16 15 14 14 14 14 14 13 13 13 13 13 13 12 12 13 13 14 14 15 15 15 15 16 17 19 21 22 23 24 24 25 25 26 26 27 27 27
22 21 22 21 19 18 17 16 14 13 12 12 12 12 11 11 11 10 9 9 9 9 9 10 11 12 13 14 15 16 17 18 19 20 21 22 23 24 25 26 27 28 29 29
23 22 23 22 21 20 19 17 16 15 14 13 12 12 11 11 10 9 8 7 6 6 7 7 8 9 11 12 13 14 15 17 18 20 21 22 24 25 26 27 28 29 30 31
27 25 25 23 23 22 20 19 18 18 17 16 15 13 12 11 10 9 8 7 7 6 6 6 7 8 9 11 12 14 15 16 18 19 20 22 24 25 27 28 29 30 30 31
26 26 26 25 25 24 23 22 21 20 19 19 18 17 15 14 12 11 10 9 8 8 7 7 8 8 9 11 12 13 14 16 17 18 20 21 23 25 26 28 29 30 30 30
23 23 24 25 26 26 26 25 25 24 23 22 21 20 19 18 16 15 13 12 11 10 10 10 10 10 11 12 13 14 15 16 17 19 20 21 23 25 26 27 27 27 27 27
21 22 22 23 24 25 26 27 27 27 27 26 24 23 22 21 20 19 17 16 15 14 14 13 13 13 14 14 15 16 16 17 18 19 20 21 23 25 26 27 27 27 25 24
22 22 22 23 24 25 26 26 27 27 28 28 28 27 26 25 23 22 21 20 19 18 18 17 17 17 17 17 18 18 18 18 19 19 20 20 22 23 25 25 25 26 27 27
25 24 24 24 24 25 26 27 27 28 29 30 30 30 29 28 27 25 24 23 22 20 20 19 19 18 19 19 19 19 19 19 19 19 19 20 21 22 23 23 24 25 26 27
27 27 27 27 28 28 28 29 29 30 30 30 31 30 30 30 30 29 27 26 24 22 22 21 20 20 19 19 19 19 19 18 18 19 19 19 20 21 22 23 23 25 27 28
29 29 30 30 30 31 31 31 31 31 31 31 31 30 30 30 30 30 29 28 26 24 23 23 21 20 20 20 20 20 19 19 18 18 19 19 19 20 22 23 23 25 27 30
32 32 33 33 34 34 34 33 32 32 32 32 32 31 29 29 29 29 29 28 26 25 24 23 22 21 21 21 21 20 20 20 19 18 18 18 19 19 21 22 24 25 27 29
35 34 35 35 35 36 36 35 34 33 32 32 32 31 30 28 27 26 26 26 25 25 25 23 22 21 21 21 21 21 20 20 19 19 19 19 20 20 21 22 24 27 29 30
39 38 38 38 38 38 37 36 35 34 33 32 32 31 29 27 26 24 22 22 24 25 25 23 22 22 22 22 21 21 21 20 19 19 20 21 21 22 23 24 26 28 30 32
44 44 43 42 41 40 39 37 36 34 33 32 31 30 28 26 25 23 21 20 21 23 24 24 23 22 23 23 22 21 21 21 20 20 21 22 22 23 24 26 28 30 31 33
49 49 47 45 44 42 40 37 36 34 33 32 31 30 29 28 26 24 22 21 20 21 22 23 23 23 24 23 22 22 21 21 21 21 22 22 23 24 25 27 29 31 33 34
50 48 46 44 42 40 38 37 35 34 33 32 31 30 30 29 27 26 24 23 22 21 21 21 22 23 23 23 23 22 22 22 22 22 22 23 24 25 26 28 30 31 33 35
46 43 41 40 38 37 36 35 34 32 31 30 29 29 30 30 29 28 26 24 23 22 21 21 20 20 21 22 23 23 23 23 23 23 23 24 25 26 27 28 30 33 35 37
40 37 36 35 34 33 33 33 32 31 30 30 29 29 30 31 30 30 28 28 26 24 22 21 20 19 20 21 23 24 25 25 24 23 23 25 26 27 28 30 31 34 36 37
Wind_Direction
324 318 310 302 294 288 285 287 281 278 274 272 270 268 268 272 275 277 277 273 266 261 259 259 259 259 259 259 261 262 263 265 266 268 270 270 271 272 273 274 275 275 276 276
325 325 322 315 309 300 291 289 285 280 278 275 275 275 275 278 280 281 279 278 273 267 263 262 262 261 260 260 260 261 263 264 265 267 269 270 272 273 274 275 275 276 276 276
326 328 327 325 319 313 305 300 293 285 279 271 274 277 278 279 277 276 275 273 272 269 265 263 262 263 262 261 260 260 261 263 264 266 269 271 274 275 276 277 277 277 277 277
323 329 328 327 328 321 314 312 307 297 288 284 283 282 280 277 274 273 272 270 269 269 268 265 264 265 264 262 260 260 261 262 265 268 271 274 276 277 278 278 279 280 280 279
319 324 325 326 332 327 320 314 310 305 297 290 286 282 280 278 276 275 273 271 271 271 269 268 265 265 266 263 262 263 264 265 268 271 274 276 278 279 281 282 282 282 282 281
309 315 319 324 333 329 324 318 315 311 306 298 294 290 287 285 283 281 278 276 274 272 271 269 267 266 265 263 264 264 265 267 270 272 275 278 281 283 284 285 285 285 285 284
301 307 309 319 328 329 327 328 322 318 315 310 305 301 296 293 291 287 284 281 279 276 272 268 266 266 265 264 266 267 268 271 273 277 280 283 285 287 288 288 288 288 287 287
292 295 292 312 316 319 322 322 322 321 320 318 315 311 305 301 298 294 291 288 283 279 274 269 266 265 265 267 268 269 271 274 279 283 285 288 289 290 290 290 289 289 289 288
279 285 292 297 301 306 311 315 318 321 324 326 328 328 323 316 312 307 301 296 291 284 279 273 269 268 268 269 271 273 276 280 283 285 287 288 290 292 292 292 291 290 289 288
270 275 281 286 289 293 297 302 307 311 317 324 332 338 340 339 335 331 325 313 303 294 287 280 276 273 271 273 276 278 281 283 284 286 288 290 291 292 293 293 291 290 289 287
266 268 273 277 281 283 287 291 294 297 301 308 315 323 330 336 339 340 339 336 327 314 303 294 288 283 280 279 280 282 283 285 287 289 291 293 294 294 294 294 293 292 290 287
265 267 269 270 274 275 278 281 285 288 292 295 299 303 308 315 322 326 328 327 323 318 311 304 297 291 287 284 284 286 288 290 292 294 296 297 298 298 297 297 296 294 292 290
271 268 267 269 270 271 273 274 276 279 283 285 288 290 291 294 298 301 304 305 305 305 305 304 300 295 293 291 290 291 292 294 297 298 300 302 303 303 303 303 301 300 299 297
282 275 270 268 269 269 270 271 272 273 274 277 280 282 283 283 284 285 286 287 288 290 291 293 293 292 292 292 292 293 295 297 299 301 303 305 307 308 309 308 307 306 305 305
292 283 277 273 270 270 271 272 273 274 275 274 274 274 275 276 277 278 278 278 278 280 282 284 286 288 290 290 292 294 296 298 300 303 307 310 312 314 316 318 317 317 317 317
296 289 283 279 276 274 275 276 276 275 275 276 275 273 271 271 271 272 273 274 275 276 278 281 283 285 287 289 290 292 294 296 299 302 307 311 315 319 322 325 325 325 326 327
299 293 287 284 281 280 280 281 281 280 277 276 275 274 272 270 268 267 268 269 271 273 275 277 279 281 283 285 287 289 291 293 296 301 306 312 318 322 326 327 328 328 329 330
297 294 290 287 285 284 284 284 284 283 282 279 277 277 276 272 268 265 264 265 267 269 271 272 274 277 279 281 284 287 289 290 294 298 304 310 317 321 324 325 327 328 329 330
296 294 290 287 285 284 284 284 283 282 281 280 280 279 279 278 275 268 264 263 263 264 266 268 270 272 275 279 282 286 288 288 291 295 300 306 312 318 321 322 324 326 328 329
292 291 289 287 285 283 283 283 282 280 279 278 278 279 279 278 277 273 267 263 261 259 260 263 267 269 272 276 280 283 286 287 289 292 296 301 305 311 316 319 321 324 326 328
290 289 288 287 285 284 283 282 280 279 277 276 274 274 276 275 274 274 273 266 259 256 257 259 262 265 269 273 276 279 283 285 286 288 292 296 300 305 310 315 320 323 325 327
287 286 286 286 284 283 282 281 279 277 274 272 271 269 268 268 269 270 272 268 260 256 255 257 258 261 266 270 273 276 279 282 283 286 289 293 296 301 305 309 314 319 324 326
284 284 284 284 284 282 281 279 277 276 273 270 268 265 261 261 262 264 266 269 266 261 257 256 258 260 263 267 270 272 275 278 281 285 289 292 295 298 302 307 311 315 319 322
280 281 282 283 282 280 278 276 274 272 270 268 266 261 256 255 256 257 261 265 268 265 261 258 260 262 265 267 269 270 272 274 277 282 287 292 296 299 302 308 312 315 317 319
280 280 280 281 279 277 275 273 271 270 268 265 263 259 254 252 252 252 255 260 264 265 263 261 262 265 267 269 269 270 272 274 276 280 286 291 296 299 302 307 311 313 316 318
281 280 279 278 276 274 272 271 269 267 265 263 260 257 254 252 250 249 251 254 257 261 263 263 264 267 268 269 270 271 272 274 276 280 286 291 296 300 303 307 311 313 315 316
278 278 277 275 273 271 270 268 267 265 262 260 258 256 255 253 251 250 250 250 251 255 258 260 263 265 268 270 272 272 272 273 276 280 285 290 295 300 304 306 309 312 314 315
Height
5779 5775 5770 5766 5763 5759 5754 5750 5747 5745 5744 5743 5742 5743 5743 5743 5744 5745 5747 5748 5750 5751 5752 5753 5755 5756 5757 5759 5760 5760 5761 5761 5762 5762 5762 5763 5763 5763 5763 5763 5762 5762 5762 5761
5775 5769 5765 5760 5756 5752 5747 5743 5739 5737 5735 5735 5735 5734 5734 5735 5736 5738 5739 5740 5742 5742 5743 5745 5746 5747 5748 5749 5750 5751 5752 5752 5753 5753 5754 5754 5754 5754 5754 5753 5753 5752 5752 5752
5770 5765 5761 5756 5752 5746 5741 5737 5733 5730 5729 5728 5727 5727 5727 5728 5728 5729 5731 5732 5733 5734 5735 5736 5737 5738 5739 5740 5741 5742 5743 5744 5744 5745 5745 5745 5745 5744 5744 5743 5742 5741 5741 5741
5766 5762 5757 5755 5747 5743 5738 5734 5730 5726 5724 5723 5722 5722 5722 5722 5722 5722 5723 5724 5725 5726 5726 5727 5728 5730 5730 5731 5732 5733 5734 5735 5736 5736 5736 5736 5735 5735 5734 5733 5732 5731 5730 5729
5763 5758 5755 5750 5745 5740 5736 5732 5729 5725 5723 5721 5720 5719 5718 5718 5717 5717 5717 5717 5717 5718 5718 5719 5720 5721 5722 5723 5723 5725 5726 5727 5727 5728 5728 5727 5726 5725 5724 5723 5722 5720 5719 5718
5759 5755 5752 5749 5743 5738 5735 5731 5728 5724 5722 5720 5718 5716 5715 5714 5712 5711 5711 5710 5710 5711 5711 5711 5712 5713 5715 5716 5716 5717 5718 5719 5719 5720 5720 5719 5718 5717 5716 5714 5713 5711 5710 5708
5754 5752 5748 5745 5740 5737 5734 5732 5726 5722 5720 5717 5715 5713 5712 5710 5708 5706 5705 5704 5704 5704 5705 5705 5706 5707 5708 5709 5710 5711 5712 5712 5712 5712 5712 5711 5710 5709 5708 5706 5704 5702 5701 5699
5750 5748 5746 5741 5738 5736 5733 5728 5725 5721 5718 5715 5713 5710 5708 5706 5704 5702 5701 5700 5699 5699 5699 5700 5701 5702 5702 5703 5704 5705 5706 5706 5706 5706 5705 5705 5703 5702 5700 5699 5697 5695 5693 5692
5745 5745 5741 5738 5735 5733 5730 5726 5723 5720 5717 5714 5711 5708 5706 5703 5701 5699 5698 5697 5696 5696 5696 5696 5697 5697 5698 5699 5700 5700 5701 5701 5701 5700 5699 5698 5697 5696 5694 5692 5690 5688 5687 5685
5738 5737 5735 5733 5731 5729 5727 5724 5721 5719 5716 5713 5710 5707 5705 5702 5700 5698 5696 5695 5694 5693 5693 5693 5693 5694 5695 5695 5696 5696 5696 5696 5696 5695 5694 5693 5691 5690 5688 5686 5684 5682 5680 5678
5730 5731 5729 5728 5726 5724 5722 5720 5718 5716 5714 5711 5709 5707 5704 5702 5699 5697 5695 5694 5693 5692 5691 5691 5691 5691 5692 5692 5692 5692 5692 5692 5691 5690 5689 5688 5686 5684 5682 5680 5678 5675 5673 5670
5722 5722 5721 5721 5719 5718 5717 5715 5714 5712 5710 5708 5707 5705 5703 5701 5699 5697 5695 5694 5692 5691 5690 5689 5689 5689 5689 5689 5689 5689 5688 5688 5687 5686 5684 5683 5681 5678 5676 5673 5671 5668 5665 5662
5713 5713 5713 5713 5712 5712 5711 5710 5709 5707 5706 5704 5703 5701 5700 5698 5697 5695 5694 5692 5691 5690 5689 5688 5687 5687 5686 5686 5686 5685 5684 5683 5682 5681 5680 5678 5675 5672 5670 5667 5663 5660 5657 5654
5706 5706 5705 5705 5704 5704 5704 5703 5702 5701 5700 5699 5698 5697 5696 5694 5693 5692 5691 5690 5689 5688 5687 5686 5685 5684 5684 5683 5682 5681 5680 5679 5678 5676 5674 5672 5669 5666 5663 5661 5657 5654 5651 5647
5701 5699 5698 5698 5697 5696 5696 5695 5695 5694 5693 5692 5692 5691 5690 5689 5688 5687 5686 5686 5685 5684 5683 5682 5681 5681 5680 5679 5678 5677 5676 5674 5673 5671 5668 5666 5663 5660 5657 5653 5650 5646 5644 5641
5695 5693 5692 5691 5690 5689 5688 5688 5687 5686 5685 5685 5684 5684 5683 5682 5682 5681 5680 5680 5679 5679 5678 5677 5677 5676 5675 5674 5673 5672 5671 5669 5667 5665 5663 5661 5658 5655 5651 5647 5644 5640 5636 5633
5689 5687 5685 5684 5683 5682 5681 5680 5679 5678 5677 5676 5675 5675 5675 5675 5674 5674 5673 5673 5673 5672 5672 5671 5671 5670 5669 5668 5667 5666 5665 5664 5662 5660 5658 5655 5653 5649 5646 5643 5639 5636 5632 5628
5681 5680 5678 5677 5675 5674 5673 5672 5670 5669 5668 5667 5666 5666 5666 5666 5666 5666 5666 5665 5665 5665 5665 5665 5664 5664 5663 5663 5662 5660 5659 5658 5656 5654 5652 5650 5648 5645 5642 5639 5635 5632 5627 5624
5673 5671 5669 5667 5666 5665 5664 5663 5662 5661 5659 5658 5656 5656 5656 5656 5656 5656 5656 5657 5657 5658 5657 5657 5657 5657 5657 5656 5655 5654 5653 5652 5651 5649 5647 5645 5642 5640 5637 5634 5631 5627 5623 5618
5663 5661 5659 5658 5656 5655 5654 5653 5652 5651 5650 5649 5648 5647 5647 5647 5647 5646 5646 5647 5649 5649 5649 5649 5649 5649 5649 5649 5648 5647 5646 5645 5644 5643 5641 5639 5637 5635 5632 5629 5626 5622 5618 5613
5653 5651 5649 5647 5646 5645 5644 5643 5642 5641 5640 5639 5639 5638 5638 5638 5638 5638 5638 5638 5640 5640 5640 5641 5642 5642 5642 5641 5641 5640 5640 5639 5638 5636 5635 5633 5631 5629 5626 5623 5620 5616 5612 5607
5641 5639 5638 5636 5634 5633 5632 5631 5631 5630 5630 5630 5629 5629 5629 5629 5630 5629 5630 5630 5630 5631 5632 5633 5634 5635 5634 5634 5634 5634 5633 5632 5631 5630 5629 5627 5625 5623 5620 5617 5614 5610 5606 5601
5628 5626 5625 5623 5622 5620 5620 5619 5619 5618 5618 5619 5619 5620 5620 5621 5621 5621 5622 5623 5622 5623 5624 5625 5626 5627 5627 5626 5627 5627 5626 5625 5624 5623 5622 5620 5618 5616 5614 5611 5607 5603 5599 5594
5613 5611 5610 5609 5607 5606 5606 5606 5605 5606 5606 5607 5608 5609 5610 5611 5612 5613 5614 5615 5615 5615 5616 5617 5618 5618 5618 5619 5619 5619 5619 5618 5618 5617 5615 5613 5611 5609 5607 5603 5600 5596 5592 5587
5597 5596 5595 5594 5593 5592 5591 5591 5592 5593 5594 5595 5596 5598 5600 5601 5603 5605 5605 5606 5607 5607 5608 5609 5610 5610 5610 5611 5611 5611 5611 5611 5610 5609 5608 5606 5604 5602 5599 5596 5593 5589 5585 5580
5581 5580 5579 5579 5578 5578 5577 5578 5579 5580 5582 5583 5585 5587 5589 5591 5593 5595 5596 5597 5598 5599 5600 5601 5602 5603 5603 5603 5604 5603 5603 5603 5602 5601 5600 5598 5597 5594 5592 5588 5585 5581 5577 5572
5567 5566 5566 5565 5565 5565 5565 5566 5567 5568 5570 5572 5574 5576 5578 5580 5582 5584 5587 5588 5590 5592 5593 5594 5594 5595 5596 5596 5596 5596 5596 5595 5595 5594 5593 5591 5589 5587 5584 5580 5577 5573 5569 5564